ES2ADF-5 Weather Reports


time (UTC)temp
C
wind
direction
speed
KPH
gust
KPH
rain 1hr
cm
rain 24hr
cm
rain mn
cm
humidity
%
barometer
mb
20260506150712 11 0 0.0 0.0 0.00 0.00 0.00 36 1012.6
20260506150211 11 0 0.0 0.0 0.00 0.00 0.00 36 1012.5
20260506145711 11 0 0.0 0.0 0.00 0.00 0.00 36 1012.7
20260506145211 11 0 0.0 0.0 0.00 0.00 0.00 36 1012.8
20260506144711 11 0 0.0 0.0 0.00 0.00 0.00 36 1012.8
20260506144210 11 0 0.0 0.0 0.00 0.00 0.00 36 1012.9
20260506143710 11 0 0.0 0.0 0.00 0.00 0.00 35 1012.9
20260506143210 11 0 0.0 0.0 0.00 0.00 0.00 35 1012.9
20260506142709 11 0 0.0 0.0 0.00 0.00 0.00 35 1012.9
20260506142209 11 0 0.0 0.0 0.00 0.00 0.00 35 1012.7
20260506141709 11 0 0.0 0.0 0.00 0.00 0.00 35 1012.7
20260506141209 11 0 0.0 0.0 0.00 0.00 0.00 35 1012.7
20260506140708 11 0 0.0 0.0 0.00 0.00 0.00 35 1012.8
20260506140208 11 0 0.0 0.0 0.00 0.00 0.00 38 1012.9
20260506135708 11 0 0.0 0.0 0.00 0.00 0.00 38 1012.9
20260506135207 11 0 0.0 0.0 0.00 0.00 0.00 38 1012.9
20260506134707 11 0 0.0 0.0 0.00 0.00 0.00 38 1013.0
20260506134207 11 0 0.0 0.0 0.00 0.00 0.00 37 1013.2
20260506133706 11 0 0.0 0.0 0.00 0.00 0.00 37 1013.2
20260506133206 11 0 0.0 0.0 0.00 0.00 0.00 37 1013.2
20260506132706 11 0 0.0 0.0 0.00 0.00 0.00 36 1013.2
20260506132206 11 0 0.0 0.0 0.00 0.00 0.00 35 1013.2
20260506131705 11 0 0.0 0.0 0.00 0.00 0.00 36 1013.2
20260506131205 12 0 0.0 0.0 0.00 0.00 0.00 36 1013.2
20260506130705 12 0 0.0 0.0 0.00 0.00 0.00 34 1013.2
20260506130204 12 0 0.0 0.0 0.00 0.00 0.00 36 1013.2
20260506125704 12 0 0.0 0.0 0.00 0.00 0.00 36 1013.2
20260506125204 12 0 0.0 0.0 0.00 0.00 0.00 36 1013.2
20260506124704 12 0 0.0 0.0 0.00 0.00 0.00 35 1013.3
20260506124203 12 0 0.0 0.0 0.00 0.00 0.00 36 1013.2
20260506123703 12 0 0.0 0.0 0.00 0.00 0.00 36 1013.3
20260506123203 12 0 0.0 0.0 0.00 0.00 0.00 35 1013.3
20260506122702 12 0 0.0 0.0 0.00 0.00 0.00 36 1013.1
20260506122202 12 0 0.0 0.0 0.00 0.00 0.00 34 1013.2
20260506121702 12 0 0.0 0.0 0.00 0.00 0.00 34 1013.1
20260506121202 12 0 0.0 0.0 0.00 0.00 0.00 34 1012.9
20260506120701 12 0 0.0 0.0 0.00 0.00 0.00 34 1012.9
20260506120201 12 0 0.0 0.0 0.00 0.00 0.00 33 1012.9
20260506115701 12 0 0.0 0.0 0.00 0.00 0.00 33 1012.8
20260506115200 12 0 0.0 0.0 0.00 0.00 0.00 33 1012.8
20260506114700 12 0 0.0 0.0 0.00 0.00 0.00 33 1012.9
20260506114200 12 0 0.0 0.0 0.00 0.00 0.00 34 1013.1
20260506113700 12 0 0.0 0.0 0.00 0.00 0.00 33 1013.1
20260506113159 12 0 0.0 0.0 0.00 0.00 0.00 33 1012.8
20260506112659 12 0 0.0 0.0 0.00 0.00 0.00 33 1012.9
20260506112159 12 0 0.0 0.0 0.00 0.00 0.00 34 1013.0
20260506111658 12 0 0.0 0.0 0.00 0.00 0.00 34 1013.0
20260506111158 12 0 0.0 0.0 0.00 0.00 0.00 34 1012.9
20260506110658 12 0 0.0 0.0 0.00 0.00 0.00 36 1012.8
20260506110157 12 0 0.0 0.0 0.00 0.00 0.00 36 1013.0
20260506105657 12 0 0.0 0.0 0.00 0.00 0.00 34 1012.9
20260506105157 12 0 0.0 0.0 0.00 0.00 0.00 36 1013.0
20260506104657 12 0 0.0 0.0 0.00 0.00 0.00 34 1012.9
20260506104156 12 0 0.0 0.0 0.00 0.00 0.00 34 1013.2
20260506103656 12 0 0.0 0.0 0.00 0.00 0.00 36 1013.2
20260506103156 12 0 0.0 0.0 0.00 0.00 0.00 36 1013.2
20260506102655 11 0 0.0 0.0 0.00 0.00 0.00 34 1013.2
20260506102155 12 0 0.0 0.0 0.00 0.00 0.00 34 1013.1
20260506101655 12 0 0.0 0.0 0.00 0.00 0.00 36 1013.2
20260506101155 12 0 0.0 0.0 0.00 0.00 0.00 37 1013.2
20260506100654 12 0 0.0 0.0 0.00 0.00 0.00 38 1013.3
20260506100154 12 0 0.0 0.0 0.00 0.00 0.00 38 1013.2
20260506095654 12 0 0.0 0.0 0.00 0.00 0.00 38 1013.3
20260506095153 12 0 0.0 0.0 0.00 0.00 0.00 38 1013.2
20260506094653 12 0 0.0 0.0 0.00 0.00 0.00 39 1013.0
20260506094153 12 0 0.0 0.0 0.00 0.00 0.00 39 1013.1
20260506093653 12 0 0.0 0.0 0.00 0.00 0.00 40 1013.1